QPF
0.00 0.00 0.00 0.00 0.00 0.00 0.00 0.00 0.00 0.00 0.00 0.00 0.00 0.00 0.00 0.00 0.00 0.00 0.00 0.00 0.00 0.00 0.00 0.00 0.00 0.00 0.00 0.00 0.00 0.00 0.00 0.00 0.00 0.00 0.00 0.00 0.00 0.00 0.00 0.00 0.00 0.00 0.00
0.00 0.00 0.00 0.00 0.00 0.00 0.00 0.00 0.00 0.00 0.00 0.00 0.00 0.00 0.00 0.00 0.00 0.00 0.00 0.00 0.00 0.00 0.00 0.00 0.00 0.00 0.00 0.00 0.00 0.00 0.00 0.00 0.00 0.00 0.00 0.00 0.00 0.00 0.00 0.00 0.00 0.00 0.00
0.00 0.00 0.00 0.00 0.00 0.00 0.00 0.00 0.00 0.00 0.00 0.00 0.00 0.00 0.00 0.00 0.00 0.00 0.00 0.00 0.00 0.00 0.00 0.00 0.00 0.00 0.00 0.00 0.00 0.00 0.00 0.00 0.00 0.00 0.00 0.00 0.00 0.00 0.00 0.00 0.00 0.00 0.00
0.00 0.00 0.00 0.00 0.00 0.00 0.00 0.00 0.00 0.00 0.00 0.00 0.00 0.00 0.00 0.00 0.00 0.00 0.00 0.00 0.00 0.00 0.00 0.00 0.00 0.00 0.00 0.00 0.00 0.00 0.00 0.00 0.00 0.00 0.00 0.00 0.00 0.00 0.00 0.00 0.00 0.00 0.00
0.00 0.00 0.00 0.00 0.00 0.00 0.00 0.00 0.00 0.00 0.00 0.00 0.00 0.00 0.00 0.00 0.00 0.00 0.00 0.00 0.00 0.00 0.00 0.00 0.00 0.00 0.00 0.00 0.00 0.00 0.00 0.00 0.00 0.00 0.00 0.00 0.00 0.00 0.00 0.00 0.00 0.00 0.00
0.00 0.00 0.00 0.00 0.00 0.00 0.00 0.00 0.00 0.00 0.00 0.00 0.00 0.00 0.00 0.00 0.00 0.00 0.00 0.00 0.00 0.00 0.00 0.00 0.00 0.00 0.00 0.00 0.00 0.00 0.00 0.00 0.00 0.00 0.00 0.00 0.00 0.00 0.00 0.00 0.00 0.00 0.00
0.00 0.00 0.00 0.00 0.00 0.00 0.00 0.00 0.00 0.00 0.00 0.00 0.00 0.00 0.00 0.00 0.00 0.00 0.00 0.00 0.00 0.00 0.00 0.00 0.00 0.00 0.00 0.00 0.00 0.00 0.00 0.00 0.00 0.00 0.00 0.00 0.00 0.00 0.00 0.00 0.00 0.00 0.00
0.00 0.00 0.00 0.00 0.00 0.00 0.00 0.00 0.00 0.00 0.00 0.00 0.00 0.00 0.00 0.00 0.00 0.00 0.00 0.00 0.00 0.00 0.00 0.00 0.00 0.00 0.00 0.00 0.00 0.00 0.00 0.00 0.00 0.00 0.00 0.00 0.00 0.00 0.00 0.00 0.00 0.00 0.00
0.01 0.00 0.00 0.00 0.00 0.00 0.00 0.00 0.00 0.00 0.00 0.00 0.00 0.00 0.00 0.00 0.00 0.00 0.00 0.00 0.00 0.00 0.00 0.00 0.00 0.00 0.00 0.00 0.00 0.00 0.00 0.00 0.00 0.00 0.00 0.00 0.00 0.00 0.00 0.00 0.00 0.00 0.00
0.01 0.00 0.00 0.00 0.00 0.00 0.00 0.00 0.00 0.00 0.00 0.00 0.00 0.00 0.00 0.00 0.00 0.00 0.00 0.00 0.00 0.00 0.00 0.00 0.00 0.00 0.00 0.00 0.00 0.00 0.00 0.00 0.00 0.00 0.00 0.00 0.00 0.00 0.00 0.00 0.00 0.00 0.00
0.00 0.00 0.00 0.00 0.00 0.00 0.00 0.00 0.00 0.00 0.00 0.00 0.00 0.00 0.00 0.00 0.00 0.00 0.00 0.00 0.00 0.00 0.00 0.00 0.00 0.00 0.00 0.00 0.00 0.00 0.00 0.00 0.00 0.00 0.00 0.00 0.00 0.00 0.00 0.00 0.00 0.00 0.00
0.00 0.00 0.00 0.00 0.00 0.00 0.00 0.00 0.00 0.00 0.00 0.00 0.00 0.00 0.00 0.00 0.00 0.00 0.00 0.00 0.00 0.00 0.00 0.00 0.00 0.00 0.00 0.00 0.00 0.00 0.00 0.00 0.00 0.00 0.00 0.00 0.00 0.00 0.00 0.00 0.00 0.00 0.00
0.00 0.00 0.00 0.00 0.00 0.00 0.00 0.00 0.00 0.00 0.00 0.00 0.00 0.00 0.00 0.00 0.00 0.00 0.00 0.00 0.00 0.00 0.00 0.00 0.00 0.00 0.00 0.00 0.00 0.00 0.00 0.00 0.00 0.00 0.00 0.00 0.00 0.00 0.00 0.00 0.00 0.00 0.00
0.00 0.00 0.00 0.00 0.00 0.00 0.00 0.00 0.00 0.00 0.00 0.00 0.00 0.00 0.00 0.00 0.00 0.00 0.00 0.00 0.00 0.00 0.00 0.00 0.00 0.00 0.00 0.00 0.00 0.00 0.00 0.00 0.00 0.00 0.00 0.00 0.00 0.00 0.00 0.00 0.00 0.00 0.00
0.00 0.00 0.00 0.00 0.00 0.00 0.00 0.00 0.00 0.00 0.00 0.00 0.00 0.00 0.00 0.00 0.00 0.00 0.00 0.00 0.00 0.00 0.00 0.00 0.00 0.00 0.00 0.00 0.00 0.00 0.00 0.00 0.00 0.00 0.00 0.00 0.00 0.00 0.00 0.00 0.00 0.00 0.00
0.00 0.00 0.00 0.00 0.00 0.00 0.00 0.00 0.00 0.00 0.00 0.00 0.00 0.00 0.00 0.00 0.00 0.00 0.00 0.00 0.00 0.00 0.00 0.00 0.00 0.00 0.00 0.00 0.00 0.00 0.00 0.00 0.00 0.00 0.00 0.00 0.00 0.00 0.00 0.00 0.00 0.00 0.00
0.00 0.00 0.00 0.00 0.00 0.00 0.00 0.00 0.00 0.00 0.00 0.00 0.00 0.00 0.00 0.00 0.00 0.00 0.00 0.00 0.00 0.00 0.00 0.00 0.00 0.00 0.00 0.00 0.00 0.00 0.00 0.00 0.00 0.00 0.00 0.00 0.00 0.00 0.00 0.00 0.00 0.00 0.00
0.00 0.00 0.00 0.00 0.00 0.00 0.00 0.00 0.00 0.00 0.00 0.00 0.00 0.00 0.00 0.00 0.00 0.00 0.00 0.00 0.00 0.00 0.00 0.00 0.00 0.00 0.00 0.00 0.00 0.00 0.00 0.00 0.00 0.00 0.00 0.00 0.00 0.00 0.00 0.00 0.00 0.00 0.00
0.00 0.00 0.00 0.00 0.00 0.00 0.00 0.00 0.00 0.00 0.00 0.00 0.00 0.00 0.00 0.00 0.00 0.00 0.00 0.00 0.00 0.00 0.00 0.00 0.00 0.00 0.00 0.00 0.00 0.00 0.00 0.00 0.00 0.00 0.00 0.00 0.00 0.00 0.00 0.00 0.00 0.00 0.00
0.00 0.00 0.00 0.00 0.00 0.00 0.00 0.00 0.00 0.00 0.00 0.00 0.00 0.00 0.00 0.00 0.00 0.00 0.00 0.00 0.00 0.00 0.00 0.00 0.00 0.00 0.00 0.00 0.00 0.00 0.00 0.00 0.00 0.00 0.00 0.00 0.00 0.00 0.00 0.00 0.00 0.00 0.00
0.00 0.00 0.00 0.00 0.00 0.00 0.00 0.00 0.00 0.00 0.00 0.00 0.00 0.00 0.00 0.00 0.00 0.00 0.00 0.00 0.00 0.00 0.00 0.00 0.00 0.00 0.00 0.00 0.00 0.00 0.00 0.00 0.00 0.00 0.00 0.00 0.00 0.00 0.00 0.00 0.00 0.00 0.00
0.00 0.00 0.00 0.00 0.00 0.00 0.00 0.00 0.00 0.00 0.00 0.00 0.00 0.00 0.00 0.00 0.00 0.00 0.00 0.00 0.00 0.00 0.00 0.00 0.00 0.00 0.00 0.00 0.00 0.00 0.00 0.00 0.00 0.00 0.00 0.00 0.00 0.00 0.00 0.00 0.00 0.00 0.00
0.00 0.00 0.00 0.00 0.00 0.00 0.00 0.00 0.00 0.00 0.00 0.00 0.00 0.00 0.00 0.00 0.00 0.00 0.00 0.00 0.00 0.00 0.00 0.00 0.00 0.00 0.00 0.00 0.00 0.00 0.00 0.00 0.00 0.00 0.00 0.00 0.00 0.00 0.00 0.00 0.00 0.00 0.00
0.00 0.00 0.00 0.00 0.00 0.00 0.00 0.00 0.00 0.00 0.00 0.00 0.00 0.00 0.00 0.00 0.00 0.00 0.00 0.00 0.00 0.00 0.00 0.00 0.00 0.00 0.00 0.00 0.00 0.00 0.00 0.00 0.00 0.00 0.00 0.00 0.00 0.00 0.00 0.00 0.00 0.00 0.00
0.00 0.00 0.00 0.00 0.00 0.00 0.00 0.00 0.00 0.00 0.00 0.00 0.00 0.00 0.00 0.00 0.00 0.00 0.00 0.00 0.00 0.00 0.00 0.00 0.00 0.00 0.00 0.00 0.00 0.00 0.00 0.00 0.00 0.00 0.00 0.00 0.00 0.00 0.00 0.00 0.00 0.00 0.00
0.00 0.00 0.00 0.00 0.00 0.00 0.00 0.00 0.00 0.00 0.00 0.00 0.00 0.00 0.00 0.00 0.00 0.00 0.00 0.00 0.00 0.00 0.00 0.00 0.00 0.00 0.00 0.00 0.00 0.00 0.00 0.00 0.00 0.00 0.00 0.00 0.00 0.00 0.00 0.00 0.00 0.00 0.00
MSLP
1002.63 1003.19 1004.22 1005.35 1006.56 1007.74 1008.65 1009.46 1010.42 1011.49 1012.45 1013.43 1014.33 1015.19 1015.84 1016.49 1017.10 1017.84 1018.45 1019.06 1019.68 1020.21 1020.68 1021.00 1021.56 1021.88 1022.47 1022.96 1023.57 1023.85 1024.27 1025.09 1026.43 1027.74 1028.08 1028.40 1028.65 1028.61 1028.73 1028.82 1028.92 1029.07 1029.24
1001.45 1002.31 1003.18 1004.59 1005.53 1006.59 1007.57 1008.48 1009.52 1010.62 1011.57 1012.51 1013.51 1014.48 1015.24 1015.89 1016.56 1017.20 1017.93 1018.60 1019.19 1019.81 1020.37 1020.82 1021.36 1021.85 1022.34 1022.75 1023.32 1023.83 1024.31 1024.86 1025.70 1027.11 1028.20 1028.65 1028.93 1029.21 1029.22 1029.37 1029.58 1029.71 1029.82
1000.29 1001.08 1002.34 1003.65 1004.60 1005.28 1006.44 1007.52 1008.62 1009.60 1010.69 1011.73 1012.73 1013.54 1014.42 1015.17 1015.93 1016.62 1017.28 1018.01 1018.64 1019.13 1019.78 1020.38 1021.02 1021.50 1022.14 1022.57 1023.16 1023.81 1024.26 1024.98 1025.68 1026.60 1027.72 1028.55 1029.15 1029.37 1029.67 1029.69 1030.12 1030.42 1030.41
999.19 999.93 1000.98 1002.21 1003.48 1004.50 1005.66 1006.70 1007.73 1008.65 1009.75 1010.75 1011.66 1012.59 1013.54 1014.44 1015.28 1016.06 1016.80 1017.51 1018.17 1018.74 1019.33 1019.91 1020.65 1021.14 1021.62 1022.16 1022.82 1023.60 1024.17 1025.13 1025.89 1026.86 1027.65 1028.41 1029.00 1029.58 1029.60 1030.13 1030.69 1031.18 1030.80
998.36 999.02 999.81 1001.49 1002.86 1003.99 1005.02 1006.01 1007.11 1007.98 1008.79 1009.87 1010.84 1011.90 1012.76 1013.69 1014.51 1015.32 1016.15 1016.92 1017.63 1018.41 1019.06 1019.63 1020.23 1020.88 1021.15 1021.66 1022.25 1023.28 1023.98 1025.04 1025.83 1026.77 1027.51 1028.17 1028.92 1029.63 1029.84 1030.23 1030.86 1031.15 1030.95
997.67 998.32 999.50 1000.91 1002.29 1003.28 1004.32 1005.44 1006.53 1007.60 1008.29 1009.25 1010.17 1011.02 1011.95 1012.73 1013.62 1014.53 1015.39 1016.28 1017.02 1017.83 1018.63 1019.39 1019.97 1020.70 1021.33 1021.46 1021.86 1022.48 1022.94 1024.09 1025.25 1026.10 1026.92 1027.57 1028.10 1028.68 1029.46 1030.15 1030.85 1031.28 1031.24
997.19 997.94 999.02 1000.32 1001.62 1002.78 1003.82 1004.90 1005.84 1006.89 1007.81 1008.59 1009.53 1010.40 1011.27 1011.96 1012.81 1013.83 1014.76 1015.70 1016.45 1017.26 1018.00 1018.94 1019.79 1020.50 1021.02 1021.71 1022.15 1022.69 1023.33 1023.77 1023.82 1024.62 1025.85 1026.56 1027.12 1027.43 1028.43 1029.81 1030.46 1030.55 1030.42
997.09 997.84 998.81 1000.04 1001.19 1002.38 1003.43 1004.25 1005.41 1006.21 1007.07 1007.81 1008.79 1009.70 1010.68 1011.46 1012.25 1013.25 1014.19 1015.18 1015.97 1016.69 1017.33 1018.19 1019.00 1020.09 1020.74 1021.47 1022.28 1023.13 1023.71 1024.03 1024.31 1024.64 1024.97 1025.51 1025.96 1026.70 1027.27 1028.53 1029.71 1030.40 1030.75
997.24 997.88 998.73 999.79 1000.96 1002.08 1002.92 1003.70 1004.68 1005.71 1006.63 1007.35 1008.14 1008.93 1009.92 1010.94 1011.77 1012.73 1013.77 1014.82 1015.57 1016.28 1016.88 1017.67 1018.45 1019.51 1020.24 1020.91 1022.02 1023.02 1023.81 1024.30 1024.47 1024.73 1025.16 1025.39 1026.04 1026.76 1027.18 1028.60 1029.68 1030.29 1030.77
997.67 998.05 998.78 999.65 1000.62 1001.65 1002.44 1003.20 1004.07 1005.09 1006.02 1006.89 1007.70 1008.32 1009.04 1010.14 1011.32 1012.17 1013.03 1014.12 1015.16 1016.02 1016.75 1017.37 1017.98 1018.83 1019.80 1020.48 1021.41 1022.45 1023.54 1023.99 1024.52 1025.04 1025.64 1025.95 1026.16 1027.01 1027.52 1027.79 1028.43 1029.23 1029.95
998.25 998.30 998.92 999.64 1000.32 1001.17 1002.06 1002.63 1003.74 1004.70 1005.72 1006.57 1007.37 1008.07 1008.68 1009.45 1010.79 1011.60 1012.39 1013.27 1014.24 1015.33 1016.26 1017.18 1017.92 1018.42 1019.38 1020.14 1020.74 1021.77 1022.31 1023.12 1024.24 1024.92 1025.57 1026.46 1026.70 1027.21 1027.66 1028.02 1028.08 1028.18 1028.75
999.27 998.73 999.16 999.76 1000.37 1001.04 1001.63 1002.45 1003.33 1004.23 1005.19 1006.12 1007.06 1007.98 1008.62 1009.27 1010.03 1011.14 1011.82 1012.57 1013.60 1014.55 1015.45 1016.39 1017.36 1018.07 1019.03 1019.93 1020.60 1021.43 1022.02 1023.00 1024.04 1025.01 1025.80 1026.44 1026.99 1027.07 1027.51 1027.77 1028.06 1028.45 1028.46
1000.09 999.79 999.59 999.92 1000.40 1000.93 1001.54 1002.24 1003.07 1003.80 1004.58 1005.51 1006.48 1007.59 1008.45 1009.13 1009.94 1010.61 1011.40 1012.16 1013.11 1014.12 1014.90 1015.75 1016.82 1017.75 1018.68 1019.71 1020.35 1021.14 1022.09 1022.92 1023.89 1024.76 1025.31 1025.74 1025.97 1026.43 1027.04 1027.79 1028.28 1028.62 1028.83
1000.71 1000.35 1000.21 1000.35 1000.78 1001.13 1001.56 1002.06 1002.62 1003.29 1004.11 1004.90 1005.83 1006.93 1008.03 1008.87 1009.53 1010.38 1011.20 1012.10 1012.97 1013.84 1014.78 1015.80 1016.61 1017.60 1018.55 1019.33 1020.52 1021.03 1021.63 1022.39 1023.04 1023.58 1024.39 1025.07 1025.87 1026.43 1027.19 1027.38 1027.97 1028.57 1029.01
1001.68 1001.18 1000.92 1000.89 1001.01 1001.40 1001.67 1001.98 1002.30 1002.75 1003.24 1004.36 1005.18 1005.97 1007.03 1008.11 1008.60 1009.15 1009.92 1011.12 1012.25 1013.28 1014.66 1015.85 1016.90 1017.64 1018.48 1019.37 1020.15 1020.79 1021.35 1022.02 1022.69 1023.25 1024.03 1024.82 1025.56 1026.12 1026.65 1027.35 1027.58 1028.05 1028.59
1002.96 1002.24 1001.77 1001.50 1001.44 1001.63 1002.00 1002.50 1002.63 1002.66 1003.11 1003.82 1004.42 1005.30 1006.61 1006.98 1007.78 1008.84 1009.62 1010.58 1011.70 1012.82 1014.14 1015.43 1016.33 1017.00 1017.76 1018.71 1019.62 1020.42 1021.00 1021.54 1021.99 1022.74 1023.53 1024.20 1024.95 1025.62 1026.13 1026.84 1027.11 1027.46 1027.86
1004.27 1003.45 1002.69 1002.19 1001.92 1002.02 1002.30 1002.54 1003.05 1003.52 1003.49 1003.85 1004.45 1005.23 1005.89 1006.44 1007.66 1008.67 1009.45 1010.44 1011.50 1012.54 1013.56 1014.64 1015.46 1016.29 1017.17 1017.99 1018.78 1019.41 1020.14 1020.76 1021.34 1022.10 1022.82 1023.51 1024.31 1025.09 1025.62 1026.16 1026.67 1027.10 1027.51
1005.19 1004.37 1003.53 1002.95 1002.51 1002.30 1002.35 1002.54 1002.80 1003.29 1003.96 1004.54 1004.86 1005.26 1005.95 1006.64 1007.36 1008.21 1009.26 1010.60 1011.91 1012.51 1013.16 1013.99 1014.82 1015.46 1016.26 1017.20 1017.95 1018.57 1019.39 1020.27 1020.96 1021.55 1022.22 1022.81 1023.54 1024.31 1025.08 1025.54 1025.91 1026.35 1026.84
1006.14 1005.26 1004.41 1003.64 1003.12 1002.82 1002.58 1002.62 1002.84 1003.16 1003.77 1004.42 1005.16 1005.67 1006.06 1006.68 1007.53 1008.23 1008.81 1009.62 1010.82 1011.92 1012.59 1013.39 1014.07 1014.83 1015.61 1016.44 1017.21 1017.96 1018.62 1019.42 1020.14 1020.95 1021.59 1022.16 1022.81 1023.52 1024.21 1024.62 1025.07 1025.55 1026.12
1006.85 1006.11 1005.29 1004.69 1004.01 1003.53 1003.22 1003.11 1003.16 1003.37 1003.79 1004.32 1004.90 1005.45 1006.16 1006.89 1007.85 1008.73 1009.18 1009.70 1010.45 1011.21 1011.91 1012.67 1013.50 1014.33 1014.99 1015.69 1016.47 1017.18 1017.98 1018.76 1019.42 1020.21 1020.82 1021.36 1021.96 1022.52 1023.16 1023.65 1024.28 1024.80 1025.31
1007.62 1006.87 1006.12 1005.53 1005.03 1004.44 1003.99 1003.76 1003.57 1003.75 1003.95 1004.34 1004.75 1005.34 1005.62 1006.14 1007.07 1007.78 1008.49 1009.14 1009.73 1010.47 1011.24 1012.01 1012.92 1013.73 1014.34 1015.01 1015.79 1016.42 1017.12 1017.85 1018.53 1019.19 1019.84 1020.52 1021.13 1021.86 1022.30 1022.80 1023.33 1023.86 1024.40
1008.33 1007.51 1006.95 1006.42 1006.10 1005.67 1005.28 1004.73 1004.32 1004.39 1004.39 1004.56 1005.13 1005.50 1005.88 1006.42 1007.04 1007.68 1008.26 1008.70 1009.08 1009.65 1010.41 1011.25 1012.22 1012.91 1013.57 1014.24 1014.93 1015.69 1016.37 1017.03 1017.74 1018.37 1019.00 1019.61 1020.29 1020.91 1021.54 1022.10 1022.64 1023.17 1023.73
1009.38 1008.35 1007.51 1007.11 1006.87 1006.55 1005.92 1005.66 1005.15 1004.90 1004.98 1005.11 1005.41 1005.77 1006.11 1006.47 1007.16 1007.68 1008.20 1008.67 1009.14 1009.66 1010.25 1010.98 1011.71 1012.43 1013.00 1013.59 1014.18 1014.77 1015.49 1016.09 1016.72 1017.32 1018.07 1018.87 1019.56 1020.17 1020.68 1021.26 1021.66 1022.29 1022.80
1010.28 1009.58 1008.82 1007.80 1007.09 1007.08 1007.01 1006.50 1005.77 1005.77 1005.90 1006.09 1005.96 1006.48 1006.73 1007.20 1007.28 1007.84 1008.34 1008.63 1009.09 1009.61 1010.07 1010.63 1011.23 1011.81 1012.51 1013.17 1013.67 1014.16 1014.75 1015.35 1015.99 1016.49 1017.02 1017.83 1018.57 1019.30 1019.86 1020.35 1020.76 1021.23 1021.72
1011.35 1010.63 1009.77 1008.70 1008.10 1007.61 1007.26 1007.33 1007.17 1007.06 1006.73 1006.41 1006.66 1007.01 1007.32 1007.49 1007.67 1007.98 1008.44 1008.50 1008.92 1009.40 1009.89 1010.31 1010.79 1011.31 1011.88 1012.51 1013.08 1013.65 1014.20 1014.78 1015.33 1015.88 1016.54 1017.13 1017.81 1018.35 1018.87 1019.39 1019.94 1020.44 1020.90
1011.98 1011.25 1010.54 1009.63 1008.74 1008.26 1007.88 1007.55 1007.36 1007.35 1007.54 1007.85 1007.97 1007.79 1007.71 1007.93 1008.05 1008.35 1008.28 1008.39 1008.91 1009.37 1009.73 1010.33 1010.74 1011.06 1011.60 1012.11 1012.50 1012.99 1013.64 1014.22 1014.70 1015.22 1015.83 1016.44 1017.06 1017.59 1018.10 1018.54 1019.06 1019.48 1019.88
Thickness
5615 5622 5621 5620 5618 5616 5619 5621 5622 5620 5620 5620 5619 5617 5618 5617 5616 5614 5612 5610 5607 5603 5599 5597 5593 5591 5587 5583 5578 5574 5571 5563 5552 5541 5540 5537 5535 5534 5534 5533 5530 5528 5524
5612 5615 5618 5614 5616 5616 5618 5619 5619 5618 5617 5618 5617 5615 5615 5615 5614 5613 5610 5608 5606 5602 5598 5595 5591 5589 5585 5583 5578 5573 5569 5564 5558 5547 5538 5535 5532 5530 5529 5529 5526 5524 5521
5609 5612 5612 5610 5613 5618 5617 5616 5616 5617 5615 5615 5615 5615 5614 5613 5612 5611 5610 5607 5605 5603 5599 5595 5591 5588 5584 5581 5577 5572 5567 5562 5556 5550 5541 5535 5530 5528 5526 5526 5522 5519 5517
5605 5610 5612 5612 5611 5613 5610 5611 5613 5615 5614 5614 5615 5615 5613 5611 5610 5608 5607 5605 5603 5601 5598 5595 5590 5588 5585 5581 5576 5570 5566 5559 5553 5546 5541 5535 5531 5526 5526 5522 5517 5516 5515
5598 5605 5611 5605 5603 5603 5602 5605 5607 5610 5612 5611 5612 5611 5610 5609 5609 5608 5606 5604 5601 5597 5594 5592 5590 5587 5585 5582 5577 5569 5564 5556 5551 5544 5539 5534 5529 5523 5522 5519 5516 5513 5514
5590 5598 5599 5597 5595 5597 5598 5598 5599 5602 5604 5605 5608 5608 5608 5609 5607 5605 5604 5602 5599 5596 5592 5588 5586 5582 5581 5579 5576 5572 5570 5560 5551 5546 5539 5538 5533 5530 5523 5518 5515 5510 5509
5581 5588 5591 5590 5589 5589 5591 5591 5594 5596 5598 5601 5602 5604 5604 5606 5604 5602 5600 5598 5597 5594 5591 5586 5582 5579 5577 5574 5571 5568 5564 5560 5559 5554 5546 5542 5538 5537 5528 5518 5515 5514 5515
5571 5577 5580 5580 5581 5581 5581 5586 5586 5590 5594 5597 5599 5599 5599 5600 5599 5597 5595 5594 5592 5591 5589 5586 5583 5576 5574 5571 5566 5561 5557 5556 5553 5550 5550 5547 5544 5539 5533 5526 5517 5513 5511
5557 5564 5568 5570 5570 5571 5574 5579 5581 5583 5586 5591 5593 5595 5595 5594 5593 5592 5590 5588 5587 5586 5585 5583 5581 5575 5571 5569 5563 5556 5551 5549 5548 5545 5544 5543 5539 5535 5531 5521 5513 5510 5506
5542 5550 5555 5559 5560 5562 5568 5572 5575 5577 5580 5582 5585 5590 5591 5590 5586 5587 5588 5585 5582 5580 5578 5578 5577 5574 5568 5566 5562 5555 5548 5547 5544 5540 5537 5536 5535 5529 5526 5523 5518 5512 5506
5520 5534 5541 5546 5551 5556 5559 5565 5566 5569 5571 5573 5576 5580 5584 5586 5581 5581 5582 5582 5581 5578 5576 5572 5570 5569 5565 5562 5561 5555 5553 5548 5543 5538 5533 5528 5529 5526 5522 5519 5517 5517 5509
5498 5518 5527 5534 5539 5546 5552 5555 5559 5562 5564 5566 5568 5569 5572 5575 5576 5575 5577 5578 5575 5574 5573 5571 5566 5563 5560 5556 5554 5551 5548 5545 5539 5532 5527 5523 5521 5522 5520 5516 5514 5513 5511
5481 5496 5509 5518 5526 5536 5542 5545 5549 5556 5559 5560 5563 5563 5563 5565 5567 5569 5570 5570 5569 5568 5568 5566 5559 5556 5553 5549 5548 5544 5542 5540 5535 5529 5527 5525 5524 5522 5517 5512 5509 5506 5504
5469 5481 5492 5503 5511 5520 5529 5535 5541 5547 5551 5553 5556 5558 5556 5556 5559 5561 5563 5561 5559 5559 5557 5553 5552 5550 5547 5545 5538 5538 5540 5537 5534 5532 5528 5524 5520 5515 5510 5510 5505 5500 5496
5450 5464 5477 5487 5499 5506 5516 5525 5533 5541 5546 5548 5551 5554 5554 5554 5559 5563 5566 5563 5560 5555 5548 5544 5541 5541 5540 5537 5535 5534 5534 5532 5529 5526 5523 5519 5515 5512 5508 5504 5502 5498 5495
5430 5446 5460 5473 5483 5493 5502 5507 5516 5527 5532 5537 5542 5546 5544 5550 5550 5551 5553 5552 5549 5546 5539 5536 5536 5538 5538 5534 5531 5528 5527 5527 5527 5522 5519 5517 5513 5509 5506 5500 5498 5496 5493
5410 5427 5443 5457 5469 5479 5488 5498 5503 5507 5517 5525 5530 5533 5537 5540 5538 5539 5540 5539 5537 5535 5531 5532 5533 5532 5531 5529 5527 5527 5525 5523 5520 5517 5516 5514 5510 5506 5503 5499 5496 5492 5489
5396 5409 5427 5442 5455 5467 5477 5486 5495 5502 5506 5508 5515 5521 5522 5526 5528 5529 5527 5523 5520 5522 5524 5525 5527 5529 5527 5524 5522 5522 5520 5515 5514 5513 5512 5511 5508 5503 5499 5497 5495 5493 5488
5381 5396 5409 5426 5441 5452 5464 5474 5482 5491 5496 5498 5499 5503 5509 5513 5514 5517 5521 5523 5521 5520 5521 5520 5522 5523 5523 5520 5518 5516 5515 5513 5511 5508 5508 5507 5504 5500 5497 5495 5493 5490 5486
5369 5383 5396 5408 5423 5437 5448 5459 5469 5478 5484 5488 5492 5495 5496 5500 5502 5503 5509 5510 5513 5514 5515 5516 5515 5514 5514 5514 5512 5511 5509 5507 5506 5505 5505 5504 5501 5499 5496 5493 5489 5487 5484
5356 5370 5383 5396 5406 5418 5430 5442 5454 5462 5471 5477 5482 5484 5491 5497 5498 5500 5503 5504 5507 5508 5509 5509 5507 5506 5506 5506 5504 5504 5503 5502 5501 5501 5500 5499 5496 5493 5490 5488 5486 5484 5481
5346 5358 5370 5382 5391 5401 5413 5424 5436 5445 5454 5461 5464 5471 5478 5482 5485 5487 5490 5493 5496 5497 5498 5497 5495 5495 5496 5496 5496 5495 5495 5495 5494 5495 5495 5493 5491 5488 5485 5483 5482 5480 5476
5331 5347 5359 5368 5378 5388 5401 5409 5421 5431 5439 5445 5450 5455 5461 5468 5470 5475 5477 5480 5482 5485 5486 5487 5487 5486 5487 5488 5488 5489 5489 5490 5490 5489 5489 5486 5484 5482 5481 5479 5479 5476 5473
5317 5329 5343 5357 5369 5377 5384 5393 5407 5415 5421 5429 5437 5439 5444 5449 5456 5458 5461 5465 5468 5471 5474 5476 5478 5479 5479 5480 5482 5483 5483 5483 5482 5484 5484 5482 5481 5478 5476 5475 5474 5471 5468
5304 5314 5329 5346 5354 5364 5374 5381 5387 5395 5405 5413 5420 5424 5431 5435 5441 5445 5448 5452 5456 5459 5462 5465 5467 5468 5470 5472 5472 5472 5472 5473 5475 5476 5475 5475 5474 5472 5472 5470 5468 5465 5462
5291 5302 5314 5332 5345 5353 5361 5369 5379 5384 5390 5392 5398 5406 5414 5420 5425 5429 5437 5441 5444 5447 5450 5451 5454 5457 5458 5459 5462 5463 5463 5464 5466 5466 5466 5467 5466 5466 5465 5464 5462 5460 5458